Regional Weather Roundup
Issued by NWS Wakefield, VA

Home | Current Version | Previous Version | Graphics & Text | Print | Product List | Glossary On
Versions: 1 2 3 4 5 6 7 8 9 10 11 12 13 14 15 16 17 18 19 20 21 22 23 24 25 26 27
000
ASUS41 KAKQ 230416
RWRAKQ

REGIONAL WEATHER ROUNDUP
NATIONAL WEATHER SERVICE WAKEFIELD VA
1200 AM EDT SUN JUL 23 2017

Note: "fair" indicates few or no clouds below 12,000 feet with no
significant weather and/or obstructions to visibility. * = Denotes
station may not report precipitation (e.g., rain,snow,etc.),
thunder or fog.

VAZ042-051-052>054-056-230500-
NORTHERN VIRGINIA

CITY           SKY/WX    TMP DP  RH WIND       PRES   REMARKS
WASH NATIONAL  CLOUDY    75  74  96 S8        29.80S
DULLES         CLOUDY    73  72  96 CALM      29.79F
FORT BELVOIR   CLOUDY    73  72  94 SE6       29.80
QUANTICO       LGT RAIN  77  75  93 E6        29.82R
FREDERICKSBRG* CLOUDY    74  74 100 MISG      29.81S
STAFFORD*      MOCLDY    74  74 100 E5        29.85F
WARRENTON      CLOUDY    75  72  88 SE6       29.79F
CULPEPER*      CLOUDY    75  75 100 CALM      29.80F
MANASSAS*      MOCLDY    74  73  97 S6        29.80F
LEESBURG*      RAIN      73  73 100 CALM      29.81S
WINCHESTER     CLOUDY    70  70 100 S5        29.80F
FRONT ROYAL*   CLOUDY    72  72 100 CALM      29.80F
LURAY*         LGT RAIN  73  73 100 CALM      29.84R
$$

VAZ048-049-060>072-079>083-230500-
CENTRAL AND SOUTH CENTRAL VIRGINIA

CITY           SKY/WX    TMP DP  RH WIND       PRES   REMARKS
RICHMOND       MOCLDY    86  76  71 SW12      29.78F HX  96
CHESTERFIELD*  FAIR      85  75  72 SW8       29.80F
PETERSBURG*    CLEAR     83  73  71 CALM      29.81F
HANOVER        LGT RAIN  78  70  76 N5        29.82R
TAPPAHANNOCK*  MOCLDY    76  76  98 E3        29.81R
QUINTON*       FAIR      80  78  96 CALM      29.78F
CHARLOTTSVILLE CLOUDY    76  73  91 SW6       29.80F
GORDONSVILLE*  CLOUDY    74  73  99 CALM      29.79F
ORANGE*        CLOUDY    72  70  94 CALM      29.80F
LOUISA*        CLOUDY    73  70  88 CALM      29.80F
BUMPASS*       FAIR      74  74 100 SE3       29.79F
FARMVILLE*     CLOUDY    83  66  56 W3        29.83R
CREWE*         FAIR      85  67  54 SW3       29.83S
FORT PICKETT*  FAIR     N/A N/A N/A SW8       29.83F
CHASE CITY*    FAIR      82  73  75 CALM      29.86S
CLARKSVILLE*   FAIR      81  73  78 S6        29.86S
SOUTH HILL*    CLEAR     82  76  83 S8        29.90F
LAWRENCEVILLE* FAIR      84  74  73 SW8       29.84F
EMPORIA*       CLEAR     82  73  74 S8        29.85S
$$

VAZ088>098-230500-
SOUTHEAST VIRGINIA

CITY           SKY/WX    TMP DP  RH WIND       PRES   REMARKS
NORFOLK        PTCLDY    85  77  77 SW15      29.81F HX  95
VIRGINIA BEACH MOCLDY    83  74  74 SW13      29.81F
NORFOLK NAVAL  MOCLDY    85  75  72 S10       29.83F
WEST POINT*    CLOUDY    76  74  92 E5        29.81S
SALUDA*        MOCLDY    75  75 100 SE6       29.79F
NEWPORT NEWS   CLOUDY    84  76  76 SW17G24   29.81F
LANGLEY AFB    CLOUDY    84  76  76 SW12      29.81
FORT EUSTIS    CLOUDY    85  76  75 S10       29.78
WILLIAMSBURG*  CLEAR     86  75  70 S5        29.81F HX  95
HR EXEC AP*    FAIR      81  75  83 SW7       29.81F
FRANKLIN*      CLEAR    N/A N/A N/A SW6       29.84S
US460-WAKEFLD  PTCLDY    84  76  76 VRB6      29.81F
$$

VAZ020-022-025-037-045-230500-
WEST CENTRAL AND SOUTHWEST VIRGINIA

CITY           SKY/WX    TMP DP  RH WIND       PRES   REMARKS
STAUNTON*      CLOUDY    74  66  75 W7        29.90R
WAYNESBORO*    CLOUDY    72  72 100 SW9       29.88S
HOT SPRINGS VA TSTM      68  64  88 NW7G16    30.05S
LYNCHBURG      MOCLDY    76  70  82 SW3       29.86F
DANVILLE       CLEAR     76  72  87 S5        29.88S
SOUTH BOSTON*  FAIR      81  69  67 SW6       29.86F
MARTINSVILLE   CLEAR     72  70  93 CALM      29.92S
ROANOKE        CLOUDY    84  70  62 W5        29.90S
BLACKSBURG     PTCLDY    79  69  69 CALM      29.99S
DUBLIN*        CLOUDY    80  64  59 SW5       29.98S
MARION*        CLEAR     76  69  78 SW5       30.03F
HILLSVILLE*    CLEAR     75  66  73 CALM      30.01S
RICHLANDS*     MOCLDY    79  68  68 SW9       30.03S
WISE*          CLOUDY    77  68  73 W6        30.05S
ABINGDON*      CLEAR     77  72  83 CALM      30.01R
$$

MDZ021>025-VAZ099-100-230500-
SOUTHERN MARYLAND AND THE DELMARVA PENINSULA

CITY           SKY/WX    TMP DP  RH WIND       PRES   REMARKS
PATUXENT RIVER TSTM      74  74 100 SE3       29.80R FOG
BAY BRIDGE APT CLOUDY    75  73  94 SE3       29.79F THUNDER
LEONARDTOWN    CLOUDY    72  70  94 SE5       29.82R
DOVER          CLOUDY    76  76 100 SW16G22   29.78
GEORGETOWN     TSTM      76  73  91 SW10G21   29.81S FOG
EASTON         RAIN      75  73  92 S7        29.84F
CAMBRIDGE      MOCLDY    73  73 100 CALM      29.82F FOG
SALISBURY      NOT AVBL
OCEAN CITY     RAIN      75  74  96 SW14G23   29.78F
WALLOPS ISLAND TSTM      74  72  93 W8        29.81S
ACCOMACK*      CLOUDY    74  72  94 S5        29.80F
$$

NCZ012>017-030>032-230500-
NORTH CENTRAL AND EASTERN NORTH CAROLINA

CITY           SKY/WX    TMP DP  RH WIND       PRES   REMARKS
ROANOKE RAPIDS FAIR      82  73  74 SW10      29.86S
RALEIGH        PTCLDY    85  72  65 SW12      29.90R
ELIZABETH CITY CLEAR     83  76  79 SW18      29.85F
AHOSKIE*         N/A     82  74  78 S5        29.86S
EDENTON*       CLEAR     84  75  75 SW13G18   29.87F
CURRITUCK*     CLEAR     83  75  76 S8        29.86S
KILL DEVIL HLS CLEAR     81  73  76 SW10      29.86F
MANTEO         NOT AVBL
CAPE HATTERAS  CLEAR     78  75  90 SW13G20   29.91F
TARBORO*       NOT AVBL
GOLDSBORO      NOT AVBL
WASHINGTON     CLEAR     81  73  77 S9G16     29.89F
GREENVILLE     CLEAR     81  73  78 SW12G17   29.90F
NEW BERN       CLEAR     79  75  87 SW7       29.92F
WILMINGTON     CLEAR     80  75  84 SW12      29.93F
$$

VAZ048-230500-
ELSEWHERE

CITY           SKY/WX    TMP DP  RH WIND       PRES   REMARKS
HARRISBURG PA  CLOUDY    77  73  87 W5        29.76S
BALTIMORE      CLOUDY    73  73 100 CALM      29.78F
ANNAPOLIS      CLOUDY    72  32  23 S6        29.79F
ANDREWS AFB    CLOUDY    73  72  94 S9        29.80
PHILADELPHIA   CLOUDY    81  70  69 W14       29.75S
HENDERSON NC   CLEAR     80  71  72 SW9       29.88S
GREENSBORO     PTCLDY    81  75  82 W9        29.92S
ROCKY MOUNT    CLEAR     83  75  77 S10       29.88R
$$

VAZ100-230500-
MARINE

STATION/POSITION TIME  TEMP    WIND        PRES    WAVE   SWELL
                       AIR SEA DIR/SP/G            HT/PER HT/PER
                 (UTC) (F)     (DEG/KT/KT) (MB)    (FT/S) (FT/S)
BRANDYWINE LGT   0348          240/ 18/ 19 1008.8F
CAPE MAY NJ      0348   75 75  250/ 10/ 11 1007.9F
LEWES DE         0348   76 75  230/  6/  9 1008.5F
15NM E FENWICK I 0350   76 76  210/ 14/ 16 1008.7F   3/ 4   2/ 7
OCEAN-CITY-INLET 0348   75 72  250/ 10/ 13 1009.1F
WACHAPREAGUE VA  0348   76 85  160/  8/ 11 1009.0F
THOMAS POINT MD  0400   76 83  210/ 13/ 16   N/A
GOOSES REEF MD   0400   77 85  140/ 10/ 17 1009.9    1/ 3
COVE POINT MD    0348   75      50/  7/  8 1010.1F
SOLOMONS ISLAND  0348   76 84  230/ 10/ 15   N/A
BISHOPS HEAD MD  0348   78 87   40/  4/  9 1009.2R
PINEY POINT MD   0348          360/  9/ 11   N/A
POTOMAC MD       0400   81 84  190/ 16/ 27 1007.5    1/ 2
CAMBRIDGE MD     0348   74 88              1010.6F
LEWISETTA VA     0348   77 86  190/ 14/ 20 1008.1F
RAPPAHANNOCK LGT 0348          130/ 10/ 11 1009.8F
STINGRAY PT      0400   81 85  190/ 12/ 14 1009.1    1/ 2
YORK RVR RNG VA  0348   84     180/ 13/ 15 1009.5F
YORKTOWN VA      0348   83 84  200/  6/  9 1008.9F
JAMESTOWN VA     0400      88  220/ 14/ 19   N/A     0
DOMINION TERM VA 0348   83     210/ 14/ 16 1009.6F
KIPTOPEKE VA     0348      78  110/ 13/ 16   N/A
CHES BAY BRIDGE  0348   83 67  140/  5/  8 1009.7F
CAPE HENRY VA    0348   82     180/  6/  8   N/A
WILLOUBY STN VA  0348   84     200/ 15/ 19 1009.5F
S CRANEY ISL VA  0348   83     200/ 10/ 14 1009.5F
CAPE HENRY BUOY  0400      74                N/A     2/ 9
1ST LANDING BUOY 0400   80 73              1009.7    1/ 3
64NM E OF VA BCH 0350   81 80  220/ 19/ 23 1010.7F   5/ 6   2/10
DUCK PIER NC     0348   83 61  210/ 15/ 21 1010.6F
44100 DUCK FRF   0305      72                N/A     3/ 6
44056 DUCK FRF   0330      62                N/A     2/11
OREGON INLET NC  0348          210/ 21/ 25 1011.8F
HATTERAS NC      0348   77 77  230/ 10/ 14 1012.8F
DIAMOND SHLS NC  0350   84 82  230/ 21/ 25 1012.8F   5/ 6   2/ 9
CAPE LOOKOUT NC  0400   81     220/ 13/ 17 1013.1F
$$




USA.gov is the U.S. government's official web portal to all federal, state and local government web resources and services.